This is the latest recevied weather packets stored in our database for station/object IU0SZS-10. If no packets are shown the sender has not sent any weather packets the latest 10 day(s).
| Time | Temp. | Humidity | Pressure | Rain* | Wind** | Luminosity | Snow |
|---|---|---|---|---|---|---|---|
| 1777936535 | 10° C | 70% | 918.2 hPa | - | - | - | - |
| 1777935635 | 10° C | 69% | 918.4 hPa | - | - | - | - |
| 1777934735 | 10° C | 69% | 918.6 hPa | - | - | - | - |
| 1777933835 | 10° C | 68% | 918.5 hPa | - | - | - | - |
| 1777932935 | 10.56° C | 67% | 918.7 hPa | - | - | - | - |
| 1777932035 | 10.56° C | 66% | 918.8 hPa | - | - | - | - |
| 1777931134 | 10.56° C | 65% | 918.7 hPa | - | - | - | - |
| 1777930234 | 10.56° C | 64% | 918.8 hPa | - | - | - | - |
| 1777929334 | 10.56° C | 64% | 918.9 hPa | - | - | - | - |
| 1777928434 | 10.56° C | 64% | 919 hPa | - | - | - | - |
| 1777927534 | 11.11° C | 63% | 919.1 hPa | - | - | - | - |
| 1777926634 | 11.11° C | 63% | 919 hPa | - | - | - | - |
| 1777925734 | 11.11° C | 63% | 919.1 hPa | - | - | - | - |
| 1777924833 | 11.11° C | 62% | 919 hPa | - | - | - | - |
| 1777923933 | 11.67° C | 63% | 918.9 hPa | - | - | - | - |
| 1777923033 | 11.67° C | 64% | 918.7 hPa | - | - | - | - |
| 1777922133 | 11.67° C | 66% | 918.7 hPa | - | - | - | - |
| 1777921233 | 12.22° C | 64% | 918.7 hPa | - | - | - | - |
| 1777920332 | 12.78° C | 62% | 918.6 hPa | - | - | - | - |
| 1777919432 | 12.78° C | 60% | 918.4 hPa | - | - | - | - |
| 1777918532 | 13.33° C | 60% | 918.3 hPa | - | - | - | - |
| 1777917632 | 13.33° C | 56% | 918.2 hPa | - | - | - | - |
| 1777916732 | 13.89° C | 54% | 918.2 hPa | - | - | - | - |
| 1777915883 | 14.44° C | 52% | 918.2 hPa | - | - | - | - |
| 1777915832 | 14.44° C | 52% | 918.2 hPa | - | - | - | - |
* Rain since midnight (hover to see other rain measurements)
** Current wind speed in m/s (hover to see current wind gust speed)